QPF
0.02 0.00 0.00 0.00 0.00 0.00 0.00 0.00 0.00 0.00 0.00 0.00 0.00 0.00 0.00 0.00 0.00 0.00 0.00 0.00 0.00 0.00 0.00 0.00 0.00 0.00 0.00 0.00 0.00 0.00 0.00 0.00 0.00 0.00 0.00 0.00 0.00 0.00 0.00 0.00 0.00 0.00 0.00
0.00 0.00 0.00 0.00 0.00 0.00 0.00 0.00 0.00 0.00 0.00 0.00 0.00 0.00 0.00 0.00 0.00 0.00 0.00 0.00 0.00 0.00 0.00 0.00 0.00 0.00 0.00 0.00 0.00 0.00 0.00 0.00 0.00 0.00 0.00 0.00 0.00 0.00 0.00 0.00 0.01 0.01 0.01
0.01 0.00 0.00 0.00 0.00 0.00 0.00 0.00 0.00 0.00 0.00 0.00 0.00 0.00 0.00 0.00 0.00 0.00 0.00 0.00 0.00 0.00 0.00 0.00 0.00 0.00 0.00 0.00 0.00 0.00 0.00 0.00 0.00 0.00 0.00 0.00 0.00 0.00 0.00 0.00 0.00 0.00 0.01
0.00 0.00 0.00 0.00 0.00 0.00 0.00 0.00 0.00 0.00 0.00 0.00 0.00 0.00 0.00 0.00 0.00 0.00 0.00 0.00 0.00 0.00 0.00 0.00 0.00 0.00 0.00 0.00 0.00 0.00 0.00 0.00 0.00 0.00 0.00 0.00 0.00 0.00 0.00 0.00 0.00 0.00 0.00
0.13 0.02 0.00 0.02 0.00 0.00 0.00 0.01 0.01 0.00 0.00 0.00 0.00 0.00 0.00 0.00 0.00 0.00 0.00 0.00 0.00 0.00 0.00 0.00 0.00 0.00 0.00 0.00 0.00 0.00 0.00 0.00 0.00 0.00 0.00 0.00 0.00 0.00 0.00 0.00 0.00 0.00 0.00
0.13 0.20 0.02 0.01 0.02 0.00 0.00 0.00 0.01 0.01 0.00 0.00 0.00 0.00 0.00 0.00 0.00 0.00 0.00 0.00 0.00 0.00 0.00 0.00 0.00 0.00 0.00 0.00 0.00 0.00 0.00 0.00 0.00 0.00 0.00 0.00 0.00 0.00 0.00 0.00 0.00 0.00 0.00
0.28 0.26 0.29 0.12 0.03 0.00 0.00 0.00 0.00 0.03 0.01 0.00 0.00 0.00 0.00 0.00 0.00 0.00 0.00 0.00 0.00 0.00 0.00 0.00 0.00 0.00 0.00 0.00 0.00 0.00 0.00 0.00 0.00 0.00 0.00 0.00 0.00 0.00 0.00 0.00 0.00 0.00 0.00
0.12 0.21 0.33 0.17 0.07 0.03 0.00 0.00 0.00 0.03 0.06 0.02 0.00 0.00 0.00 0.00 0.00 0.00 0.00 0.00 0.00 0.00 0.00 0.00 0.00 0.00 0.00 0.00 0.00 0.00 0.00 0.00 0.00 0.00 0.00 0.00 0.00 0.00 0.00 0.00 0.00 0.00 0.00
0.06 0.02 0.10 0.24 0.02 0.01 0.01 0.01 0.00 0.01 0.08 0.10 0.02 0.00 0.00 0.00 0.00 0.00 0.00 0.00 0.00 0.00 0.00 0.00 0.00 0.00 0.00 0.00 0.00 0.00 0.00 0.00 0.00 0.00 0.00 0.00 0.00 0.00 0.00 0.00 0.00 0.00 0.00
0.09 0.08 0.06 0.12 0.14 0.11 0.05 0.05 0.01 0.01 0.07 0.11 0.09 0.03 0.00 0.00 0.00 0.00 0.00 0.00 0.00 0.00 0.00 0.00 0.00 0.00 0.00 0.00 0.00 0.00 0.00 0.00 0.00 0.00 0.00 0.00 0.00 0.00 0.00 0.00 0.00 0.00 0.00
0.04 0.10 0.03 0.04 0.16 0.31 0.17 0.08 0.04 0.03 0.08 0.11 0.13 0.06 0.00 0.00 0.00 0.00 0.00 0.00 0.00 0.00 0.00 0.00 0.00 0.00 0.00 0.00 0.00 0.00 0.00 0.00 0.00 0.00 0.00 0.00 0.00 0.00 0.00 0.00 0.00 0.00 0.00
0.02 0.02 0.01 0.03 0.04 0.09 0.16 0.08 0.06 0.04 0.08 0.14 0.10 0.06 0.00 0.00 0.00 0.00 0.00 0.00 0.00 0.00 0.00 0.00 0.00 0.00 0.00 0.00 0.00 0.00 0.00 0.00 0.00 0.00 0.00 0.00 0.00 0.00 0.00 0.00 0.00 0.00 0.00
0.01 0.00 0.00 0.02 0.02 0.01 0.08 0.07 0.02 0.01 0.04 0.12 0.13 0.09 0.00 0.00 0.00 0.00 0.00 0.00 0.00 0.00 0.00 0.00 0.00 0.00 0.00 0.00 0.00 0.00 0.00 0.00 0.00 0.00 0.00 0.00 0.00 0.00 0.00 0.00 0.00 0.00 0.00
0.00 0.00 0.02 0.01 0.00 0.00 0.03 0.05 0.01 0.00 0.01 0.05 0.13 0.10 0.01 0.00 0.00 0.00 0.00 0.00 0.00 0.00 0.00 0.00 0.00 0.00 0.00 0.00 0.00 0.00 0.00 0.00 0.00 0.00 0.00 0.00 0.00 0.00 0.00 0.00 0.00 0.00 0.00
0.00 0.00 0.02 0.00 0.00 0.00 0.01 0.02 0.00 0.00 0.00 0.01 0.05 0.05 0.01 0.00 0.00 0.00 0.00 0.00 0.00 0.00 0.00 0.00 0.00 0.00 0.00 0.00 0.00 0.00 0.00 0.00 0.00 0.00 0.00 0.00 0.00 0.00 0.00 0.00 0.00 0.00 0.00
0.01 0.01 0.01 0.00 0.00 0.00 0.01 0.00 0.00 0.00 0.01 0.00 0.01 0.02 0.03 0.02 0.00 0.00 0.00 0.00 0.00 0.00 0.00 0.00 0.00 0.00 0.00 0.00 0.00 0.00 0.00 0.00 0.00 0.00 0.00 0.00 0.00 0.00 0.00 0.00 0.00 0.00 0.00
0.01 0.00 0.00 0.00 0.00 0.00 0.01 0.01 0.00 0.00 0.00 0.01 0.02 0.06 0.07 0.02 0.00 0.00 0.00 0.00 0.00 0.00 0.00 0.00 0.00 0.00 0.00 0.00 0.00 0.00 0.00 0.00 0.00 0.00 0.00 0.00 0.00 0.00 0.00 0.00 0.00 0.00 0.00
0.00 0.00 0.00 0.00 0.00 0.00 0.00 0.00 0.00 0.00 0.00 0.01 0.02 0.02 0.02 0.02 0.00 0.00 0.00 0.00 0.00 0.00 0.00 0.00 0.00 0.00 0.00 0.00 0.00 0.00 0.00 0.00 0.00 0.00 0.00 0.00 0.00 0.00 0.00 0.00 0.00 0.00 0.00
0.00 0.00 0.00 0.00 0.00 0.00 0.00 0.00 0.00 0.00 0.01 0.01 0.01 0.01 0.00 0.00 0.00 0.00 0.00 0.00 0.00 0.00 0.00 0.00 0.00 0.00 0.00 0.00 0.00 0.00 0.00 0.00 0.00 0.00 0.00 0.00 0.00 0.00 0.00 0.00 0.00 0.00 0.00
0.00 0.00 0.00 0.00 0.00 0.00 0.00 0.00 0.00 0.00 0.00 0.00 0.00 0.01 0.00 0.00 0.00 0.00 0.00 0.00 0.00 0.00 0.00 0.00 0.00 0.00 0.00 0.00 0.00 0.00 0.00 0.00 0.00 0.00 0.00 0.00 0.00 0.00 0.00 0.00 0.00 0.00 0.00
0.00 0.00 0.00 0.00 0.00 0.00 0.00 0.00 0.00 0.00 0.00 0.00 0.00 0.00 0.00 0.00 0.00 0.00 0.00 0.00 0.00 0.00 0.00 0.00 0.00 0.00 0.00 0.00 0.00 0.00 0.00 0.00 0.00 0.00 0.00 0.00 0.00 0.00 0.00 0.00 0.00 0.00 0.00
0.00 0.00 0.00 0.00 0.00 0.00 0.00 0.00 0.00 0.00 0.00 0.00 0.00 0.00 0.00 0.01 0.01 0.01 0.00 0.00 0.00 0.00 0.00 0.00 0.00 0.00 0.00 0.00 0.00 0.00 0.00 0.00 0.00 0.00 0.00 0.00 0.00 0.00 0.00 0.00 0.00 0.00 0.00
0.00 0.00 0.00 0.00 0.00 0.00 0.00 0.00 0.00 0.00 0.00 0.00 0.00 0.00 0.00 0.00 0.02 0.01 0.01 0.00 0.00 0.00 0.00 0.01 0.01 0.00 0.00 0.00 0.00 0.00 0.00 0.00 0.00 0.00 0.00 0.00 0.00 0.00 0.00 0.00 0.00 0.00 0.00
0.00 0.00 0.00 0.00 0.00 0.00 0.00 0.00 0.00 0.00 0.00 0.00 0.00 0.00 0.00 0.00 0.00 0.00 0.00 0.00 0.00 0.01 0.01 0.01 0.02 0.01 0.00 0.00 0.00 0.00 0.00 0.00 0.00 0.00 0.00 0.00 0.00 0.00 0.00 0.00 0.00 0.00 0.00
0.00 0.00 0.00 0.00 0.00 0.00 0.00 0.00 0.00 0.00 0.00 0.00 0.00 0.00 0.00 0.00 0.00 0.00 0.00 0.00 0.00 0.00 0.01 0.02 0.01 0.02 0.01 0.01 0.00 0.00 0.00 0.00 0.00 0.00 0.00 0.00 0.00 0.00 0.00 0.00 0.00 0.00 0.00
0.00 0.00 0.00 0.00 0.00 0.00 0.00 0.00 0.00 0.00 0.00 0.00 0.00 0.00 0.00 0.00 0.00 0.00 0.00 0.00 0.00 0.00 0.00 0.01 0.06 0.04 0.03 0.01 0.00 0.00 0.00 0.00 0.00 0.00 0.00 0.00 0.00 0.00 0.00 0.00 0.00 0.00 0.00
MSLP
1010.10 1009.97 1009.74 1009.72 1009.55 1009.68 1010.77 1010.34 1009.83 1009.67 1011.56 1012.68 1012.95 1013.40 1014.26 1014.38 1014.80 1015.23 1015.38 1015.72 1015.83 1016.61 1017.19 1017.58 1017.81 1018.27 1018.22 1018.52 1019.08 1019.45 1019.56 1019.57 1019.85 1019.84 1019.92 1020.33 1020.31 1020.48 1020.77 1020.72 1020.75 1020.74 1020.93
1009.74 1009.74 1009.67 1010.13 1010.07 1009.91 1010.81 1011.14 1010.99 1010.60 1011.15 1011.93 1013.46 1013.79 1013.81 1014.61 1014.92 1015.48 1015.52 1015.64 1015.97 1016.62 1017.11 1017.82 1018.23 1018.66 1018.64 1019.24 1019.63 1019.87 1019.94 1020.17 1020.36 1020.33 1020.46 1020.56 1020.76 1020.81 1021.02 1021.11 1021.07 1021.09 1021.18
1009.64 1009.35 1010.21 1010.73 1010.45 1010.88 1011.34 1011.60 1011.34 1011.39 1011.51 1012.45 1013.36 1013.86 1014.27 1014.76 1015.02 1015.67 1015.85 1016.10 1016.43 1017.02 1017.60 1017.97 1018.57 1018.51 1019.10 1019.73 1020.04 1020.15 1020.29 1020.75 1020.87 1020.85 1021.17 1021.14 1021.24 1021.29 1021.43 1021.52 1021.54 1021.59 1021.66
1009.55 1009.69 1009.39 1010.33 1010.88 1010.91 1011.31 1011.95 1011.79 1012.01 1011.94 1012.99 1013.80 1014.21 1014.70 1014.96 1015.57 1015.86 1016.21 1016.44 1016.65 1016.90 1017.66 1018.53 1018.72 1019.05 1019.71 1020.05 1020.49 1020.34 1020.80 1021.07 1021.43 1021.41 1021.55 1021.57 1021.61 1021.76 1021.94 1021.96 1021.95 1022.15 1022.32
1009.53 1009.62 1010.12 1010.09 1010.72 1010.68 1011.19 1011.85 1011.69 1012.48 1013.00 1012.67 1014.19 1014.54 1015.09 1015.46 1016.04 1016.36 1016.59 1016.77 1016.92 1017.09 1017.60 1018.32 1018.84 1019.48 1020.20 1020.48 1020.67 1020.68 1020.98 1021.46 1021.84 1021.93 1022.04 1022.25 1022.28 1022.53 1022.63 1022.59 1022.57 1022.69 1022.88
1009.43 1009.51 1009.45 1010.01 1010.24 1010.13 1010.68 1010.87 1011.53 1011.76 1013.28 1013.12 1014.00 1014.77 1015.46 1015.90 1016.19 1016.65 1016.91 1017.12 1017.21 1017.41 1018.02 1018.82 1019.43 1019.74 1020.32 1020.71 1021.14 1021.21 1021.40 1021.85 1022.00 1022.26 1022.42 1022.60 1022.75 1022.98 1023.22 1023.10 1023.14 1023.21 1023.48
1009.62 1009.09 1009.70 1009.90 1010.21 1010.02 1010.22 1010.12 1010.28 1011.02 1012.57 1013.92 1014.19 1014.82 1015.44 1016.42 1016.75 1016.91 1017.35 1017.59 1017.59 1017.85 1018.55 1019.15 1019.86 1020.10 1020.59 1020.94 1021.35 1021.75 1022.01 1022.15 1022.36 1022.68 1022.91 1023.12 1023.17 1023.35 1023.59 1023.71 1023.66 1023.80 1024.03
1009.90 1009.58 1009.82 1010.02 1010.49 1011.16 1010.63 1010.72 1010.68 1011.28 1011.84 1013.21 1014.30 1014.69 1015.55 1016.66 1017.04 1017.22 1017.54 1017.95 1018.34 1018.48 1018.71 1019.31 1019.97 1020.29 1020.67 1021.17 1021.52 1022.01 1022.26 1022.34 1022.63 1022.88 1023.11 1023.43 1023.55 1023.63 1023.92 1024.25 1024.27 1024.36 1024.44
1010.09 1009.93 1009.78 1010.39 1011.11 1010.90 1011.14 1011.12 1010.88 1011.37 1012.34 1013.91 1014.28 1014.40 1016.03 1016.82 1017.24 1017.49 1017.80 1018.18 1018.56 1018.95 1019.14 1019.53 1020.14 1020.49 1021.01 1021.30 1021.72 1022.23 1022.43 1022.73 1022.95 1023.26 1023.49 1023.78 1023.99 1024.12 1024.19 1024.56 1024.66 1024.80 1024.96
1010.21 1010.66 1010.36 1010.43 1010.82 1011.09 1011.34 1011.36 1011.29 1011.79 1012.81 1014.03 1014.61 1015.30 1016.10 1017.00 1017.45 1017.92 1018.18 1018.47 1018.76 1019.14 1019.68 1019.92 1020.52 1020.98 1021.34 1021.84 1021.93 1022.21 1022.74 1023.11 1023.28 1023.57 1023.84 1024.07 1024.17 1024.44 1024.63 1024.86 1024.95 1025.25 1025.52
1010.49 1010.82 1010.87 1010.71 1010.87 1011.10 1011.62 1011.39 1011.72 1012.34 1013.08 1014.24 1015.17 1015.44 1016.59 1017.08 1017.85 1018.24 1018.53 1018.76 1019.05 1019.57 1019.91 1020.02 1020.55 1021.04 1021.57 1022.23 1022.15 1022.39 1022.97 1023.52 1023.72 1023.63 1023.91 1024.21 1024.37 1024.64 1024.92 1025.21 1025.41 1025.57 1025.85
1010.56 1010.79 1010.97 1010.95 1010.88 1010.92 1011.20 1010.61 1011.88 1012.88 1013.69 1014.51 1014.97 1016.04 1016.36 1017.17 1018.15 1018.44 1018.61 1018.95 1019.57 1019.94 1020.16 1020.52 1021.04 1021.23 1021.89 1022.61 1022.62 1022.78 1023.08 1023.84 1023.87 1023.72 1024.03 1024.34 1024.65 1024.87 1025.26 1025.48 1025.65 1025.85 1025.92
1010.70 1010.80 1010.74 1010.56 1010.44 1010.68 1011.05 1011.20 1011.82 1012.67 1013.83 1014.15 1015.27 1016.04 1016.33 1017.41 1018.39 1018.68 1019.02 1019.69 1020.08 1020.20 1020.70 1021.12 1021.47 1021.90 1022.21 1022.94 1023.04 1023.00 1023.37 1023.96 1024.31 1023.99 1024.12 1024.47 1024.78 1025.05 1025.49 1025.77 1025.83 1026.04 1026.28
1010.77 1010.75 1010.48 1010.30 1009.97 1009.55 1009.66 1009.97 1010.62 1012.07 1013.82 1014.93 1015.40 1016.04 1016.64 1017.49 1018.58 1018.87 1019.27 1019.91 1020.17 1020.70 1021.08 1021.55 1021.96 1022.32 1022.98 1023.32 1022.97 1023.54 1024.04 1024.45 1024.62 1024.64 1024.47 1024.72 1024.97 1025.24 1025.62 1025.95 1026.18 1026.28 1026.40
1010.58 1010.55 1010.44 1009.99 1009.36 1007.32 1007.36 1008.47 1010.23 1012.34 1013.37 1014.67 1015.48 1016.05 1016.67 1017.35 1018.15 1018.72 1019.36 1019.92 1020.36 1021.05 1021.19 1021.87 1022.15 1022.65 1023.17 1023.16 1023.35 1023.72 1024.07 1024.23 1024.39 1024.70 1024.86 1024.80 1025.03 1025.27 1025.56 1025.83 1026.21 1026.44 1026.69
1010.50 1010.63 1010.50 1010.31 1009.66 1008.60 1008.07 1008.83 1010.42 1012.42 1013.20 1014.29 1015.40 1016.05 1016.70 1017.23 1017.83 1018.51 1019.04 1019.76 1020.38 1020.92 1021.36 1021.70 1021.81 1022.80 1023.04 1023.29 1023.71 1023.98 1024.10 1024.31 1024.38 1024.67 1024.82 1025.02 1025.08 1025.29 1025.55 1025.80 1026.22 1026.57 1026.92
1010.56 1010.74 1010.63 1010.69 1010.45 1009.95 1010.08 1010.51 1011.81 1012.84 1013.72 1014.03 1015.40 1016.05 1016.76 1017.05 1018.06 1018.37 1018.83 1019.36 1019.77 1021.08 1021.63 1021.60 1022.32 1022.70 1023.28 1023.58 1023.97 1024.20 1024.21 1024.41 1024.47 1024.63 1024.94 1025.27 1025.28 1025.45 1025.58 1025.71 1025.97 1026.35 1026.68
1010.65 1010.85 1010.99 1011.08 1011.14 1011.05 1011.15 1011.80 1012.48 1013.20 1013.90 1014.52 1015.50 1016.07 1016.35 1017.19 1017.80 1018.56 1019.33 1019.50 1019.49 1021.05 1021.58 1021.54 1022.13 1022.75 1023.54 1023.81 1024.10 1024.53 1024.54 1024.33 1024.55 1024.73 1025.02 1025.38 1025.67 1025.67 1025.59 1025.88 1026.19 1026.32 1026.59
1010.85 1011.12 1011.35 1011.39 1011.58 1011.74 1012.16 1012.51 1012.97 1013.53 1014.27 1015.19 1015.72 1016.20 1016.66 1017.06 1017.86 1018.69 1019.43 1019.25 1019.90 1020.93 1021.40 1021.62 1022.40 1022.41 1023.46 1023.97 1024.20 1024.54 1024.71 1024.40 1024.60 1024.90 1025.19 1025.48 1025.75 1025.90 1026.00 1025.96 1026.17 1026.37 1026.58
1011.07 1011.28 1011.66 1011.82 1012.08 1012.32 1012.87 1013.44 1014.03 1014.56 1014.98 1015.09 1015.70 1016.33 1016.54 1017.22 1017.88 1018.74 1019.27 1020.02 1019.73 1020.91 1021.62 1021.86 1022.11 1022.67 1023.28 1023.64 1024.15 1024.73 1024.98 1024.93 1024.78 1025.01 1025.16 1025.30 1025.77 1025.84 1026.03 1026.32 1026.30 1026.32 1026.44
1011.29 1011.53 1012.05 1012.09 1012.34 1012.60 1013.04 1013.56 1014.27 1014.60 1015.22 1015.78 1015.71 1016.12 1016.18 1017.31 1018.03 1018.38 1019.31 1019.81 1020.01 1020.85 1021.34 1021.61 1022.09 1022.71 1023.33 1023.73 1024.56 1025.17 1024.95 1024.92 1024.90 1025.06 1025.24 1025.18 1025.29 1025.49 1025.88 1026.12 1026.24 1026.33 1026.33
1011.30 1011.72 1012.09 1012.30 1012.52 1012.65 1013.11 1013.78 1014.43 1015.11 1015.60 1015.96 1015.74 1016.04 1016.49 1016.99 1018.05 1018.72 1018.79 1019.66 1019.92 1020.81 1021.22 1021.35 1021.71 1022.68 1023.09 1023.19 1024.05 1024.86 1025.19 1025.14 1024.85 1024.82 1024.97 1025.03 1025.01 1025.36 1025.54 1025.81 1026.08 1026.25 1026.44
1011.13 1011.52 1011.93 1012.35 1012.75 1012.96 1013.42 1014.05 1014.96 1015.41 1015.97 1016.12 1016.33 1016.54 1017.15 1017.68 1018.13 1017.78 1018.60 1019.13 1019.72 1020.20 1020.70 1021.04 1021.30 1021.71 1022.52 1023.16 1023.01 1023.50 1024.97 1024.69 1024.60 1024.61 1024.64 1024.80 1024.96 1025.28 1025.26 1025.52 1025.88 1026.00 1026.14
1010.95 1011.46 1011.76 1012.16 1012.57 1012.98 1013.32 1013.95 1014.56 1014.78 1015.31 1015.55 1016.27 1016.92 1017.49 1017.61 1018.05 1017.67 1018.30 1018.77 1019.14 1019.67 1020.07 1020.44 1020.90 1021.17 1021.62 1022.24 1023.13 1023.06 1023.28 1023.50 1024.18 1024.75 1024.65 1024.58 1024.64 1024.92 1024.94 1025.17 1025.33 1025.56 1025.69
1010.86 1011.24 1011.67 1012.19 1012.64 1013.00 1013.40 1013.70 1014.24 1014.85 1015.18 1015.48 1016.03 1016.58 1017.20 1017.52 1017.40 1017.66 1018.04 1018.38 1018.73 1019.08 1019.48 1019.82 1020.42 1020.88 1020.95 1021.18 1021.43 1022.46 1023.04 1023.38 1023.51 1024.09 1024.65 1024.81 1024.85 1024.56 1024.70 1024.82 1024.89 1025.11 1025.26
1010.82 1011.26 1011.79 1012.07 1012.55 1012.88 1013.27 1013.67 1014.02 1014.30 1014.95 1015.66 1015.98 1016.25 1016.67 1016.71 1017.11 1017.40 1017.74 1017.81 1017.81 1018.39 1018.68 1019.10 1019.72 1020.27 1020.47 1020.63 1020.80 1021.14 1021.50 1022.36 1023.12 1023.69 1024.15 1024.38 1024.40 1024.58 1024.56 1024.55 1024.57 1024.75 1024.79
Thickness
5690 5694 5697 5699 5706 5710 5704 5708 5718 5722 5709 5702 5704 5699 5694 5698 5698 5697 5700 5700 5702 5695 5689 5687 5687 5683 5686 5683 5678 5674 5675 5675 5671 5672 5672 5667 5667 5665 5662 5662 5661 5661 5659
5692 5690 5689 5690 5697 5699 5697 5695 5701 5710 5711 5704 5693 5694 5699 5692 5694 5692 5696 5698 5697 5691 5689 5684 5682 5679 5681 5674 5673 5671 5671 5668 5666 5666 5664 5663 5661 5660 5657 5656 5656 5656 5654
5686 5688 5684 5680 5688 5684 5683 5686 5692 5699 5701 5695 5692 5692 5692 5689 5692 5689 5691 5692 5690 5687 5683 5681 5676 5679 5675 5670 5669 5667 5667 5661 5660 5660 5656 5657 5655 5654 5652 5651 5650 5649 5648
5680 5679 5684 5676 5677 5678 5679 5677 5683 5686 5691 5686 5682 5685 5683 5686 5684 5687 5685 5686 5687 5686 5681 5673 5673 5671 5667 5666 5661 5664 5659 5656 5652 5654 5653 5652 5649 5647 5645 5645 5645 5642 5641
5672 5672 5670 5673 5672 5677 5676 5674 5679 5677 5677 5685 5674 5678 5676 5679 5677 5679 5680 5681 5682 5681 5676 5671 5668 5665 5660 5657 5656 5658 5655 5650 5647 5647 5647 5644 5642 5638 5637 5638 5638 5638 5635
5664 5667 5669 5668 5671 5677 5678 5682 5679 5680 5670 5678 5672 5670 5668 5670 5674 5673 5673 5673 5675 5674 5669 5662 5658 5658 5654 5651 5649 5649 5648 5644 5645 5643 5640 5637 5635 5631 5630 5632 5632 5632 5629
5651 5663 5659 5660 5662 5671 5678 5683 5686 5681 5672 5668 5669 5665 5665 5660 5664 5667 5666 5667 5670 5668 5661 5657 5651 5652 5649 5647 5644 5640 5639 5640 5639 5636 5634 5632 5630 5627 5625 5625 5627 5626 5623
5643 5651 5651 5648 5646 5655 5667 5671 5678 5675 5676 5669 5665 5663 5660 5656 5658 5660 5661 5661 5660 5658 5659 5654 5647 5647 5644 5641 5639 5635 5633 5635 5633 5632 5630 5626 5624 5623 5621 5619 5619 5618 5618
5636 5645 5651 5644 5642 5651 5655 5660 5669 5669 5665 5659 5659 5662 5653 5651 5652 5655 5657 5655 5653 5651 5652 5649 5643 5642 5639 5636 5634 5630 5629 5627 5627 5625 5622 5620 5617 5617 5617 5614 5613 5612 5610
5636 5635 5642 5647 5644 5645 5647 5650 5656 5659 5656 5651 5651 5650 5648 5646 5647 5646 5648 5648 5649 5648 5643 5641 5637 5634 5632 5627 5629 5627 5622 5620 5620 5619 5616 5613 5611 5609 5609 5607 5607 5605 5603
5634 5631 5635 5639 5639 5639 5637 5644 5646 5646 5647 5641 5639 5644 5638 5641 5639 5640 5640 5641 5642 5641 5638 5638 5632 5630 5627 5622 5624 5622 5617 5614 5613 5615 5612 5608 5607 5606 5604 5603 5602 5602 5598
5632 5631 5630 5632 5633 5635 5634 5645 5637 5635 5635 5636 5638 5634 5635 5636 5634 5634 5635 5637 5635 5633 5632 5627 5624 5625 5620 5615 5616 5616 5614 5608 5608 5611 5609 5604 5603 5602 5599 5598 5597 5596 5595
5631 5628 5627 5629 5628 5629 5629 5631 5632 5632 5629 5631 5632 5631 5631 5628 5627 5628 5629 5628 5626 5625 5623 5619 5618 5614 5613 5609 5610 5611 5609 5605 5602 5605 5604 5601 5598 5596 5593 5591 5591 5590 5587
5627 5628 5626 5626 5625 5627 5628 5629 5635 5632 5625 5624 5628 5626 5625 5624 5621 5622 5623 5622 5620 5618 5615 5611 5609 5608 5603 5600 5603 5599 5597 5595 5594 5595 5597 5594 5592 5590 5587 5585 5583 5583 5582
5626 5624 5624 5626 5624 5637 5636 5632 5635 5625 5626 5623 5625 5623 5623 5621 5621 5620 5619 5616 5614 5610 5610 5605 5601 5599 5595 5595 5594 5595 5595 5595 5594 5592 5591 5590 5589 5586 5584 5582 5579 5577 5574
5623 5621 5621 5620 5621 5627 5629 5629 5629 5620 5624 5625 5623 5623 5621 5619 5619 5617 5618 5613 5608 5604 5604 5600 5601 5593 5593 5590 5588 5589 5591 5590 5591 5589 5588 5585 5585 5582 5579 5576 5571 5568 5566
5620 5618 5619 5616 5617 5619 5617 5619 5617 5616 5619 5625 5621 5620 5617 5617 5612 5615 5614 5611 5608 5599 5596 5596 5591 5590 5586 5583 5583 5584 5586 5586 5586 5585 5583 5580 5579 5577 5574 5572 5569 5565 5562
5618 5615 5614 5613 5613 5616 5613 5613 5612 5615 5619 5620 5617 5616 5616 5611 5610 5608 5605 5605 5605 5594 5590 5592 5590 5585 5579 5579 5579 5577 5578 5582 5581 5581 5579 5576 5572 5571 5569 5565 5562 5560 5557
5614 5612 5611 5612 5611 5613 5613 5613 5614 5616 5615 5611 5612 5609 5609 5610 5606 5602 5598 5602 5597 5591 5587 5586 5581 5585 5577 5574 5575 5574 5574 5578 5576 5574 5571 5569 5566 5564 5562 5560 5557 5553 5550
5610 5610 5608 5609 5608 5608 5608 5607 5606 5605 5606 5609 5607 5604 5607 5605 5602 5598 5596 5590 5593 5585 5579 5579 5579 5577 5574 5573 5573 5569 5568 5570 5571 5569 5567 5565 5561 5559 5557 5552 5549 5546 5543
5607 5606 5604 5608 5607 5607 5605 5605 5602 5604 5602 5599 5603 5603 5605 5599 5596 5596 5589 5587 5586 5580 5576 5576 5577 5574 5571 5569 5565 5560 5565 5565 5565 5565 5563 5563 5560 5557 5551 5548 5545 5542 5538
5608 5605 5603 5603 5604 5606 5604 5601 5599 5595 5593 5592 5599 5599 5598 5597 5591 5587 5587 5582 5581 5574 5573 5576 5575 5569 5568 5569 5564 5559 5560 5560 5560 5561 5559 5557 5556 5551 5547 5543 5538 5534 5530
5611 5608 5606 5604 5602 5602 5600 5597 5591 5589 5586 5588 5589 5591 5590 5587 5584 5588 5583 5581 5578 5577 5578 5577 5576 5575 5569 5565 5567 5566 5552 5558 5555 5556 5555 5551 5549 5545 5542 5536 5530 5527 5524
5616 5611 5608 5605 5602 5600 5598 5595 5593 5594 5590 5592 5587 5585 5581 5581 5578 5586 5582 5582 5582 5582 5581 5579 5575 5575 5573 5568 5561 5563 5561 5560 5556 5554 5548 5546 5543 5539 5536 5530 5525 5522 5518
5619 5616 5611 5607 5603 5600 5598 5597 5596 5592 5593 5590 5587 5583 5578 5579 5582 5583 5585 5585 5584 5582 5581 5580 5576 5573 5573 5572 5569 5561 5557 5553 5550 5546 5541 5538 5532 5531 5528 5523 5520 5517 5512
5618 5615 5610 5611 5607 5604 5601 5599 5599 5600 5595 5590 5587 5587 5585 5586 5586 5587 5585 5586 5587 5582 5581 5580 5576 5572 5571 5570 5570 5566 5563 5555 5546 5540 5534 5529 5527 5522 5518 5516 5514 5509 5506